[[{"header":{"parameterUnit":"m.s-1","parameterCategory":1,"la1":30.2992,"la2":30.254,"lo1":-89.0895,"lo2":-89.0443,"dy":0.0025,"dx":0.0025,"nx":19,"ny":19,"refTime":"2026-04-04T09:00:00:Z","depth":0,"parameterNumber":2,"parameterNumberName":"U-component_of_WINDS"},"data":[0,0,0,-0.896,-0.8962,-0.9041,-0.9041,-0.9141,-0.9142,0,0,0,0,0,0,0,0,0,0,0,-0.8937,-0.8937,-0.896,-0.8962,-0.9041,-0.9041,-0.9141,-0.9142,0,0,0,0,0,0,0,0,0,0,0,-0.8936,-0.8937,-0.8938,-0.8962,-0.9041,-0.9041,-0.9141,-0.9082,0,0,0,0,0,0,0,0,0,0,-0.9005,-0.8983,-0.8937,-0.8938,-0.8963,-0.9041,-0.9041,-0.9079,-0.9086,-0.9105,0,-0.9123,0,-0.9134,-0.9149,-0.9149,0,0,0,-0.8963,-0.8978,-0.8999,-0.8938,-0.8964,-0.9041,-0.9006,-0.9083,-0.909,-0.9114,-0.9124,-0.9128,-0.9136,-0.915,-0.915,-0.9261,-0.9261,0,0,-0.8958,-0.8951,-0.8994,-0.9004,-0.8992,-0.9003,-0.9008,-0.9087,-0.9098,-0.9125,-0.913,-0.9137,-0.915,-0.9151,-0.926,-0.9261,0,0,0,-0.8945,-0.8948,-0.8967,-0.9,-0.9014,-0.9005,-0.9011,-0.9095,-0.9101,-0.9131,-0.9138,-0.9151,-0.9152,-0.926,-0.9261,-0.9277,0,0,0,-0.8943,-0.894,-0.8965,-0.8962,-0.9012,-0.9055,-0.9017,-0.9096,-0.9105,-0.9138,-0.9151,-0.9153,-0.9259,-0.926,-0.9276,-0.9287,0,0,0,-0.8932,-0.8939,-0.895,-0.8961,-0.8995,-0.9054,-0.9066,-0.9098,-0.9109,-0.9149,-0.9153,-0.9259,-0.926,-0.9274,-0.9284,-0.9312,0,0,0,-0.8918,-0.8965,-0.895,-0.9006,-0.8994,-0.9064,-0.9065,-0.9118,-0.9154,-0.9151,-0.9259,-0.9261,-0.9274,-0.9283,-0.9311,-0.9335,-0.9344,0,0,-0.8974,-0.8972,-0.9005,-0.8994,-0.9064,-0.9052,-0.9125,-0.9166,-0.9177,-0.9232,-0.9235,-0.9276,-0.9284,-0.9312,-0.9399,-0.9407,0,0,0,-0.902,-0.9044,-0.9064,-0.9097,-0.9129,-0.9156,-0.9186,-0.9201,-0.9248,-0.9204,-0.9294,-0.9299,-0.9316,-0.9328,-0.9334,-0.9348,-0.9266,-0.9266,-0.9266,-0.9089,-0.9099,-0.9154,-0.9173,-0.9206,-0.9235,-0.9262,-0.9286,-0.9289,-0.9309,-0.9326,-0.9378,-0.9391,-0.9396,-0.941,-0.934,-0.934,-0.934,-0.934,-0.9172,-0.9206,-0.9205,-0.9258,-0.9268,-0.9313,-0.9342,-0.9342,-0.9384,-0.9367,-0.9382,-0.9361,-0.9403,-0.9417,-0.9341,-0.9341,-0.9341,-0.9341,-0.9341,-0.9218,-0.9236,-0.9252,-0.93,-0.9335,-0.9353,-0.9393,-0.9401,-0.9409,-0.9424,-0.9441,-0.9441,-0.9441,-0.9431,-0.9432,-0.9432,-0.9432,-0.9432,-0.9432,-0.9259,-0.9277,-0.9309,-0.9345,-0.9366,-0.9395,-0.9423,-0.9444,-0.9469,-0.9472,-0.9472,-0.9471,-0.9406,-0.9389,-0.9435,-0.9434,-0.9434,-0.9434,-0.9434,-0.9339,-0.9321,-0.9372,-0.9393,-0.9434,-0.9467,-0.9476,-0.9518,-0.9537,-0.9556,-0.9551,-0.9501,-0.95,-0.9496,-0.9482,-0.9549,-0.9549,-0.9549,-0.9549,-0.9377,-0.9377,-0.9429,-0.9462,-0.9495,-0.9507,-0.9563,-0.9584,-0.9603,-0.9615,-0.9606,-0.9588,-0.9583,-0.9585,-0.9579,-0.9566,-0.9653,-0.9653,-0.9653,-0.9426,-0.9428,-0.9475,-0.9493,-0.9524,-0.9551,-0.9603,-0.964,-0.9659,-0.9658,-0.9624,-0.962,-0.9591,-0.9581,-0.958,-0.9569,-0.9546,0,0]},{"header":{"parameterUnit":"m.s-1","parameterCategory":1,"la1":30.2992,"la2":30.254,"lo1":-89.0895,"lo2":-89.0443,"dy":0.0025,"dx":0.0025,"nx":19,"ny":19,"refTime":"2026-04-04T09:00:00:Z","depth":0,"parameterNumber":3,"parameterNumberName":"V-component_of_WINDS"},"data":[0,0,0,-7.5941,-7.5946,-7.619,-7.6191,-7.651,-7.6513,0,0,0,0,0,0,0,0,0,0,0,-7.5877,-7.5879,-7.594,-7.5947,-7.619,-7.6191,-7.6509,-7.6513,0,0,0,0,0,0,0,0,0,0,0,-7.5876,-7.5879,-7.5882,-7.5948,-7.619,-7.6191,-7.6508,-7.6321,0,0,0,0,0,0,0,0,0,0,-7.6083,-7.6033,-7.5878,-7.5882,-7.5949,-7.6189,-7.6191,-7.6312,-7.6333,-7.6404,0,-7.6472,0,-7.6498,-7.6535,-7.6536,0,0,0,-7.594,-7.6015,-7.6074,-7.5882,-7.5952,-7.6189,-7.6078,-7.6323,-7.6347,-7.6432,-7.6477,-7.6488,-7.6503,-7.6537,-7.6538,-7.6981,-7.6983,0,0,-7.5926,-7.5924,-7.6058,-7.609,-7.6057,-7.607,-7.6086,-7.6338,-7.6385,-7.6478,-7.6495,-7.6508,-7.6539,-7.6542,-7.6978,-7.6981,0,0,0,-7.5892,-7.5915,-7.5967,-7.6077,-7.6121,-7.6078,-7.6095,-7.6374,-7.6391,-7.6499,-7.6512,-7.6541,-7.6545,-7.6976,-7.6979,-7.7098,0,0,0,-7.5884,-7.5895,-7.5962,-7.5963,-7.6117,-7.6251,-7.6126,-7.6374,-7.6402,-7.6511,-7.6541,-7.6548,-7.6973,-7.6978,-7.7089,-7.7153,0,0,0,-7.5858,-7.5892,-7.593,-7.5962,-7.6067,-7.6247,-7.6279,-7.638,-7.6411,-7.6536,-7.6549,-7.6971,-7.6977,-7.7081,-7.714,-7.727,0,0,0,-7.5828,-7.6029,-7.5932,-7.6161,-7.6065,-7.632,-7.6277,-7.6466,-7.6587,-7.6543,-7.6973,-7.6979,-7.7078,-7.7132,-7.7262,-7.738,-7.7429,0,0,-7.608,-7.6059,-7.6195,-7.6115,-7.6387,-7.6283,-7.6571,-7.6682,-7.6693,-7.6883,-7.6894,-7.7092,-7.7139,-7.7269,-7.7704,-7.7743,0,0,0,-7.6273,-7.6371,-7.6443,-7.6561,-7.6653,-7.6738,-7.6806,-7.6847,-7.7009,-7.6792,-7.7174,-7.7202,-7.7278,-7.7334,-7.7367,-7.7433,-7.7005,-7.7004,-7.7004,-7.6624,-7.6633,-7.6857,-7.6896,-7.701,-7.708,-7.7173,-7.724,-7.7211,-7.7301,-7.7358,-7.7622,-7.7688,-7.7712,-7.7781,-7.742,-7.7421,-7.7421,-7.7422,-7.6994,-7.7133,-7.7095,-7.7299,-7.7306,-7.7476,-7.7551,-7.7525,-7.7683,-7.7579,-7.7646,-7.7532,-7.7755,-7.7815,-7.7431,-7.7429,-7.7428,-7.7427,-7.7426,-7.7225,-7.7294,-7.7344,-7.7516,-7.7648,-7.7678,-7.7833,-7.7832,-7.7832,-7.7899,-7.7958,-7.7957,-7.7955,-7.7927,-7.7928,-7.7929,-7.793,-7.7931,-7.7931,-7.7445,-7.7498,-7.7631,-7.7749,-7.7825,-7.7925,-7.7999,-7.8073,-7.8155,-7.8142,-7.8142,-7.8105,-7.7776,-7.7694,-7.7946,-7.7943,-7.7941,-7.794,-7.7939,-7.7817,-7.7734,-7.7939,-7.8016,-7.8155,-7.8286,-7.8284,-7.8436,-7.8497,-7.8574,-7.8523,-7.828,-7.8257,-7.8231,-7.8163,-7.8521,-7.8521,-7.8521,-7.8521,-7.8012,-7.8002,-7.8213,-7.8337,-7.8458,-7.8478,-7.8708,-7.8767,-7.8814,-7.8853,-7.8801,-7.871,-7.8683,-7.8676,-7.864,-7.8576,-7.9032,-7.9033,-7.9033,-7.8241,-7.8244,-7.8441,-7.849,-7.8599,-7.8692,-7.8908,-7.905,-7.9085,-7.9054,-7.8883,-7.8861,-7.8714,-7.8667,-7.863,-7.8574,-7.8457,0,0]}]]